Terminal Aerodrome Forecast
Issued by NWS

Home | Current Version | Previous Version | Text Only | Print | Product List | Glossary On
Versions: 1 2 3 4 5 6 7 8 9 10 11 12 13 14 15 16
000
FTUS43 KFGF 172300
TAFDVL
TAF
KDVL 172322Z 1800/1824 15006KT P6SM SKC
      TEMPO 1808/1812 3SM BR
     FM181800 17009KT P6SM BKN100
      AMD LTD TO CLD VIS AND WIND=

USA.gov is the U.S. government's official web portal to all federal, state and local government web resources and services.